Newcastle, WY

3:43 AM MST on December 13, 2019 (GMT -0700)
Mondell

Weather History for KECS - October, 2019

Change the Weather History Date:

Thursday, October 24, 2019

  Actual Average (WUND) Record (WUND)
Temperature  
Mean Temperature 34 °F -  
Max Temperature 44 °F - - (-1)
Min Temperature 23 °F - - (-1)
Degree Days  
Heating Degree Days 32    
Moisture  
Dew Point 23 °F    
Average Humidity 71    
Maximum Humidity 100    
Minimum Humidity 31    
Precipitation  
Precipitation 0.00 in - - ()
Sea Level Pressure  
Sea Level Pressure 30.32 in    
Wind  
Wind Speed 7 mph (NW)    
Max Wind Speed 14 mph    
Max Gust Speed 21 mph    
Visibility 10 miles    
Events Snow    
Averages and records for this station are not official NWS values.
T = Trace of Precipitation, MM = Missing Value Source: NWS Daily Summary

Daily Weather History Graph

Daily Weather History Graph

Search for Another Location

Airport or City:

Astronomy

Oct. 24, 2019 Rise Set
Actual Time 7:22 AM MDT 5:59 PM MDT
Civil Twilight 6:53 AM MDT 6:28 PM MDT
Nautical Twilight 6:19 AM MDT 7:02 PM MDT
Astronomical Twilight 5:46 AM MDT 7:35 PM MDT
Moon 2:43 AM MDT (10/24) 4:38 PM MDT (10/24)
Length of Visible Light 11h 35m
Length of Day
10h 36m
Waning Crescent, 16% of the Moon is Illuminated
Oct 24
Waning Crescent
Oct 27
New
Nov 4
First Quarter
Nov 12
Full
Nov 19
Last Quarter

Hourly Weather History & Observations

Time (MDT) Temp. Windchill Dew Point Humidity Pressure Visibility Wind Dir Wind Speed Gust Speed Precip Events Conditions
12:15 AM 30.2 °F 21.3 °F 28.4 °F 93% 30.36 in 10.0 mi WNW 10.4 mph - N/A   Mostly Cloudy
12:35 AM 32.0 °F 24.2 °F 26.6 °F 80% 30.35 in 10.0 mi WNW 9.2 mph - N/A   Overcast
12:55 AM 30.2 °F 22.6 °F 28.4 °F 93% 30.36 in 10.0 mi WNW 8.1 mph - N/A   Overcast
1:15 AM 30.2 °F 20.8 °F 30.2 °F 100% 30.36 in 10.0 mi WNW 11.5 mph - N/A   Overcast
1:35 AM 30.2 °F 21.3 °F 30.2 °F 100% 30.37 in 10.0 mi WNW 10.4 mph - N/A   Overcast
2:15 AM 32.0 °F 26.4 °F 30.2 °F 93% 30.36 in 10.0 mi NW 5.8 mph - N/A Snow Light Snow
2:35 AM 32.0 °F 25.6 °F 30.2 °F 93% 30.36 in 4.0 mi WNW 6.9 mph - N/A Snow Light Snow
2:55 AM 32.0 °F 26.4 °F 30.2 °F 93% 30.36 in 10.0 mi NW 5.8 mph - N/A   Overcast
3:15 AM 30.2 °F 24.3 °F 30.2 °F 100% 30.36 in 5.0 mi NW 5.8 mph - N/A   Overcast
3:40 AM 30.2 °F 23.4 °F 28.4 °F 93% 30.37 in 10.0 mi West 6.9 mph - N/A   Overcast
3:55 AM 28.4 °F 23.3 °F 28.4 °F 100% 30.37 in 10.0 mi WNW 4.6 mph - N/A   Mostly Cloudy
4:15 AM 28.4 °F 21.2 °F 26.6 °F 93% 30.37 in 10.0 mi NW 6.9 mph - N/A   Scattered Clouds
4:35 AM 26.6 °F 20.0 °F 24.8 °F 93% 30.37 in 10.0 mi WNW 5.8 mph - N/A   Scattered Clouds
4:55 AM 26.6 °F 22.6 °F 26.6 °F 100% 30.38 in 10.0 mi NNW 3.5 mph - N/A   Overcast
5:15 AM 28.4 °F 22.2 °F 26.6 °F 93% 30.38 in 10.0 mi NNW 5.8 mph - N/A   Mostly Cloudy
5:35 AM 26.6 °F 19.1 °F 24.8 °F 93% 30.39 in 10.0 mi NNW 6.9 mph - N/A   Scattered Clouds
5:55 AM 26.6 °F 20.0 °F 24.8 °F 93% 30.38 in 10.0 mi NNW 5.8 mph - N/A   Scattered Clouds
6:15 AM 26.6 °F 20.0 °F 24.8 °F 93% 30.38 in 10.0 mi North 5.8 mph - N/A   Clear
6:35 AM 26.6 °F 22.6 °F 24.8 °F 93% 30.38 in 10.0 mi North 3.5 mph - N/A   Clear
6:55 AM 24.8 °F - 23.0 °F 93% 30.38 in 10.0 mi Calm Calm - N/A   Clear
7:15 AM 24.8 °F 19.1 °F 23.0 °F 93% 30.38 in 10.0 mi West 4.6 mph - N/A   Clear
7:35 AM 26.6 °F 22.6 °F 23.0 °F 86% 30.39 in 10.0 mi North 3.5 mph - N/A   Clear
7:55 AM 23.0 °F 18.4 °F 21.2 °F 93% 30.39 in 10.0 mi North 3.5 mph - N/A   Clear
8:15 AM 26.6 °F 21.2 °F 24.8 °F 93% 30.39 in 10.0 mi North 4.6 mph - N/A   Scattered Clouds
8:35 AM 26.6 °F - 23.0 °F 86% 30.40 in 10.0 mi Calm Calm - N/A   Scattered Clouds
8:55 AM 28.4 °F - 26.6 °F 93% 30.40 in 10.0 mi Calm Calm - N/A   Clear
9:15 AM 28.4 °F 24.6 °F 26.6 °F 93% 30.39 in 10.0 mi NNW 3.5 mph - N/A   Clear
9:35 AM 32.0 °F 25.6 °F 24.8 °F 75% 30.38 in 10.0 mi NW 6.9 mph - N/A   Clear
9:55 AM 32.0 °F 26.4 °F 23.0 °F 69% 30.38 in 10.0 mi WNW 5.8 mph - N/A   Clear
10:15 AM 32.0 °F 24.8 °F 23.0 °F 69% 30.37 in 10.0 mi West 8.1 mph - N/A   Clear
10:35 AM 33.8 °F 28.6 °F 23.0 °F 65% 30.38 in 10.0 mi WNW 5.8 mph - N/A   Clear
10:55 AM 33.8 °F 30.8 °F 23.0 °F 65% 30.37 in 10.0 mi NNW 3.5 mph - N/A   Clear
11:15 AM 35.6 °F 28.6 °F 23.0 °F 60% 30.37 in 10.0 mi West 9.2 mph - N/A   Clear
11:35 AM 35.6 °F 29.9 °F 24.8 °F 65% 30.36 in 10.0 mi SSW 6.9 mph - N/A   Scattered Clouds
11:55 AM 37.4 °F 33.8 °F 23.0 °F 56% 30.36 in 10.0 mi SW 4.6 mph - N/A   Scattered Clouds
12:15 PM 37.4 °F 31.4 °F 24.8 °F 60% 30.36 in 10.0 mi SW 8.1 mph 18.4 mph N/A   Mostly Cloudy
12:35 PM 37.4 °F 31.4 °F 21.2 °F 52% 30.34 in 10.0 mi West 8.1 mph - N/A   Scattered Clouds
12:55 PM 41.0 °F 35.2 °F 23.0 °F 49% 30.32 in 10.0 mi SSW 9.2 mph - N/A   Clear
1:15 PM 41.0 °F - 21.2 °F 45% 30.30 in 10.0 mi Calm Calm - N/A   Clear
1:35 PM 42.8 °F 38.0 °F 19.4 °F 39% 30.30 in 10.0 mi SW 8.1 mph - N/A   Clear
1:55 PM 42.8 °F 37.0 °F 19.4 °F 39% 30.28 in 10.0 mi SSW 10.4 mph - N/A   Clear
2:15 PM 42.8 °F 39.3 °F 19.4 °F 39% 30.28 in 10.0 mi South 5.8 mph - N/A   Scattered Clouds
2:35 PM 44.6 °F 40.2 °F 17.6 °F 34% 30.27 in 10.0 mi SW 8.1 mph - N/A   Mostly Cloudy
2:55 PM 44.6 °F 39.7 °F 15.8 °F 31% 30.25 in 10.0 mi WSW 9.2 mph 17.3 mph N/A   Mostly Cloudy
3:15 PM 44.6 °F 38.1 °F 17.6 °F 34% 30.25 in 10.0 mi West 13.8 mph 19.6 mph N/A   Mostly Cloudy
3:35 PM 44.6 °F 40.2 °F 15.8 °F 31% 30.24 in 10.0 mi West 8.1 mph 17.3 mph N/A   Mostly Cloudy
3:55 PM 42.8 °F 37.5 °F 17.6 °F 36% 30.24 in 10.0 mi WSW 9.2 mph - N/A   Scattered Clouds
4:15 PM 44.6 °F 38.4 °F 17.6 °F 34% 30.24 in 10.0 mi West 12.7 mph 20.7 mph N/A   Scattered Clouds
4:35 PM 44.6 °F 38.4 °F 15.8 °F 31% 30.25 in 10.0 mi WSW 12.7 mph 17.3 mph N/A   Scattered Clouds
4:55 PM 42.8 °F 38.0 °F 17.6 °F 36% 30.25 in 10.0 mi West 8.1 mph 18.4 mph N/A   Clear
5:15 PM 41.0 °F 37.1 °F 17.6 °F 39% 30.25 in 10.0 mi West 5.8 mph - N/A   Clear
5:35 PM 37.4 °F 34.9 °F 19.4 °F 48% 30.25 in 10.0 mi WNW 3.5 mph - N/A   Scattered Clouds
5:55 PM 37.4 °F - 19.4 °F 48% 30.23 in 10.0 mi Calm Calm - N/A   Mostly Cloudy
6:15 PM 37.4 °F - 21.2 °F 52% 30.24 in 10.0 mi Calm Calm - N/A   Scattered Clouds
6:35 PM 35.6 °F 32.8 °F 19.4 °F 52% 30.24 in 10.0 mi NNE 3.5 mph - N/A   Clear
6:55 PM 33.8 °F 29.6 °F 21.2 °F 60% 30.24 in 10.0 mi NNE 4.6 mph - N/A   Clear
7:15 PM 32.0 °F 27.5 °F 21.2 °F 64% 30.24 in 10.0 mi NE 4.6 mph - N/A   Scattered Clouds
7:55 PM 32.0 °F 26.4 °F 23.0 °F 69% 30.24 in 10.0 mi North 5.8 mph - N/A   Clear
8:15 PM 32.0 °F 24.8 °F 23.0 °F 69% 30.24 in 10.0 mi North 8.1 mph - N/A   Clear
8:35 PM 32.0 °F 24.2 °F 23.0 °F 69% 30.24 in 10.0 mi North 9.2 mph - N/A   Clear
8:55 PM 30.2 °F 21.9 °F 23.0 °F 75% 30.25 in 10.0 mi North 9.2 mph - N/A   Clear
9:15 PM 30.2 °F 22.6 °F 23.0 °F 75% 30.24 in 10.0 mi North 8.1 mph - N/A   Clear
9:35 PM 30.2 °F 21.9 °F 23.0 °F 75% 30.25 in 10.0 mi North 9.2 mph - N/A   Clear
9:55 PM 30.2 °F 23.4 °F 23.0 °F 75% 30.25 in 10.0 mi North 6.9 mph - N/A   Clear
10:15 PM 30.2 °F 23.4 °F 23.0 °F 75% 30.25 in 10.0 mi NNE 6.9 mph - N/A   Clear
10:35 PM 30.2 °F 23.4 °F 21.2 °F 69% 30.25 in 10.0 mi North 6.9 mph - N/A   Clear
10:55 PM 28.4 °F 22.2 °F 21.2 °F 74% 30.24 in 10.0 mi NNE 5.8 mph - N/A   Clear
11:15 PM 28.4 °F 20.4 °F 21.2 °F 74% 30.25 in 10.0 mi North 8.1 mph - N/A   Clear
11:35 PM 28.4 °F 21.2 °F 21.2 °F 74% 30.25 in 10.0 mi NNE 6.9 mph - N/A   Clear
11:55 PM 28.4 °F - 21.2 °F 74% 30.25 in 10.0 mi Calm Calm - N/A   Clear